EW3360 Weather Reports


time (UTC)temp
F
wind
direction
speed
knots
gust
knots
rain 1hr
in
rain 24hr
in
rain mn
in
humidity
%
barometer
mb
20260505124514 46 263 0.0 0.0 0.00 0.00 0.00 96 1016.4
20260505123013 45 263 0.0 1.7 0.00 0.00 0.00 97 1016.5
20260505121512 44 263 0.0 0.0 0.00 0.00 0.00 97 1016.3
20260505120012 42 54 0.0 0.0 0.00 0.00 0.00 97 1016.3
20260505114510 42 54 0.0 0.0 0.00 0.00 0.00 97 1016.3
20260505113012 41 54 0.0 0.0 0.00 0.00 0.00 97 1016.2
20260505111509 41 54 0.0 0.0 0.00 0.00 0.00 97 1016.3
20260505101505 42 54 0.0 0.0 0.00 0.00 0.00 96 1016.0
20260505100007 42 54 0.0 0.0 0.00 0.00 0.00 96 1016.1
20260505094503 42 54 0.0 0.0 0.00 0.00 0.00 96 1015.9
20260505093008 42 54 0.0 0.0 0.00 0.00 0.00 96 1015.8
20260505091502 42 54 0.0 0.0 0.00 0.00 0.00 96 1015.8
20260505090006 42 54 0.0 0.0 0.00 0.00 0.00 96 1015.9
20260505084605 42 54 0.0 0.0 0.00 0.00 0.00 96 1015.8
20260505083112 42 54 0.0 0.0 0.00 0.00 0.00 96 1015.8
20260505081601 42 54 0.0 0.0 0.00 0.00 0.00 95 1015.6
20260505080104 43 54 0.0 0.0 0.00 0.00 0.00 95 1015.7
20260505074553 43 54 0.0 0.0 0.00 0.00 0.00 95 1015.8
20260505073059 43 54 0.0 0.0 0.00 0.00 0.00 95 1015.8
20260505071553 44 54 0.0 0.0 0.00 0.00 0.00 95 1016.0
20260505070052 44 54 0.0 0.9 0.00 0.00 0.00 95 1016.0
20260505064615 44 54 0.0 0.0 0.00 0.00 0.00 94 1016.2
20260505063045 44 54 0.0 0.9 0.00 0.00 0.00 94 1016.4
20260505061544 44 54 0.0 0.0 0.00 0.00 0.00 94 1016.5
20260505060041 45 54 0.0 0.9 0.00 0.00 0.00 94 1016.4
20260505054548 45 54 0.0 0.0 0.00 0.00 0.00 93 1016.4
20260505053038 45 54 0.0 0.0 0.00 0.00 0.00 93 1016.3
20260505051538 46 54 0.0 0.0 0.00 0.00 0.00 93 1016.4
20260505041528 47 54 0.0 0.9 0.00 0.00 0.00 90 1016.4
20260505040026 47 54 0.0 0.0 0.00 0.00 0.00 90 1016.6
20260505034527 48 54 0.0 0.0 0.00 0.00 0.00 89 1016.7
20260505033027 48 54 0.0 0.0 0.00 0.00 0.00 88 1016.8
20260505031525 49 54 0.0 0.0 0.00 0.00 0.00 88 1016.8
20260505030040 50 54 0.0 0.0 0.00 0.00 0.00 87 1016.9
20260505024524 50 54 0.0 0.9 0.00 0.00 0.00 86 1016.7
20260505023025 51 54 0.0 0.9 0.00 0.00 0.00 85 1016.7
20260505021524 51 54 0.0 0.0 0.00 0.00 0.00 84 1016.7
20260505020022 52 54 0.0 0.9 0.00 0.00 0.00 83 1016.6
20260505014523 53 54 0.0 0.9 0.00 0.00 0.00 81 1016.5
20260505013020 54 54 0.0 0.9 0.00 0.00 0.00 79 1016.3
20260505011520 55 54 0.0 0.0 0.00 0.00 0.00 78 1016.1
20260505010019 56 54 0.0 0.0 0.00 0.00 0.00 76 1016.0
20260505004530 57 54 0.0 0.0 0.00 0.00 0.00 73 1015.9
20260505003018 58 54 0.0 0.9 0.00 0.00 0.00 72 1015.8
20260505001518 60 54 0.0 0.0 0.00 0.00 0.00 71 1015.8
20260505000018 61 54 0.0 0.0 0.00 0.00 0.00 68 1015.7
20260504234519 62 54 0.0 1.7 0.00 0.00 0.00 68 1015.5
20260504233020 63 54 0.0 2.6 0.00 0.00 0.00 67 1015.4
20260504231516 65 54 0.0 1.7 0.00 0.00 0.00 64 1015.3
20260504230015 65 54 0.0 2.6 0.00 0.00 0.00 61 1015.2
20260504224514 66 9 0.0 4.3 0.00 0.00 0.00 56 1015.2
20260504223015 67 26 0.9 2.6 0.00 0.00 0.00 54 1015.2
20260504221513 68 155 0.0 3.5 0.00 0.00 0.00 50 1015.2
20260504220012 68 333 0.9 5.2 0.00 0.00 0.00 53 1015.3
20260504214513 69 19 0.9 3.5 0.00 0.00 0.00 50 1015.2
20260504213024 69 15 0.9 2.6 0.00 0.00 0.00 47 1015.1
20260504211510 69 42 0.9 5.2 0.00 0.00 0.00 48 1015.0
20260504210006 70 343 2.6 5.2 0.00 0.00 0.00 45 1015.1
20260504204508 71 5 0.9 4.3 0.00 0.00 0.00 46 1015.0
20260504203005 71 13 0.9 3.5 0.00 0.00 0.00 46 1015.0
20260504201503 71 24 1.7 3.5 0.00 0.00 0.00 44 1015.0
20260504200104 73 42 1.7 4.3 0.00 0.00 0.00 39 1015.2
20260504200006 74 42 1.7 4.3 0.00 0.00 0.00 40 1015.3
20260504194605 73 40 0.9 5.2 0.00 0.00 0.00 42 1015.4
20260504193058 73 74 1.7 3.5 0.00 0.00 0.00 44 1015.6
20260504191621 76 38 1.7 3.5 0.00 0.00 0.00 40 1015.8
20260504190058 75 34 0.9 3.5 0.00 0.00 0.00 37 1016.0
20260504184602 75 45 1.7 3.5 0.00 0.00 0.00 38 1016.2
20260504183053 74 40 1.7 7.0 0.00 0.00 0.00 37 1016.2
20260504181552 75 349 0.9 4.3 0.00 0.00 0.00 35 1016.2
20260504180050 76 53 0.9 4.3 0.00 0.00 0.00 32 1016.4
20260504174547 76 71 0.9 2.6 0.00 0.00 0.00 30 1016.6
20260504173044 75 159 0.9 3.5 0.00 0.00 0.00 31 1016.8
20260504171543 74 63 0.9 3.5 0.00 0.00 0.00 28 1017.2
20260504140105 53 102 0.0 1.7 0.00 0.01 0.00 74 1019.4